This is the latest recevied weather packets stored in our database for station/object WC4PEM-9. If no packets are shown the sender has not sent any weather packets the latest 10 day(s).
| Time | Temp. | Humidity | Pressure | Rain* | Wind** | Luminosity | Snow |
|---|---|---|---|---|---|---|---|
| 1777301913 | 27.22° C | 69% | 1015.8 hPa | 0 mm | - | - | - |
| 1777301634 | 27.22° C | 69% | 1015.8 hPa | 0 mm | - | - | - |
| 1777301488 | 26.67° C | 70% | 1016 hPa | 0 mm | - | - | - |
| 1777301334 | 26.67° C | 70% | 1016 hPa | 0 mm | - | - | - |
| 1777301184 | 26.67° C | 70% | 1015.9 hPa | 0 mm | - | - | - |
| 1777301034 | 26.67° C | 70% | 1015.9 hPa | 0 mm | - | - | - |
| 1777300917 | 26.67° C | 71% | 1015.8 hPa | 0 mm | - | - | - |
| 1777300734 | 26.67° C | 71% | 1015.8 hPa | 0 mm | - | - | - |
| 1777300697 | 26.67° C | 71% | 1015.7 hPa | 0 mm | - | - | - |
| 1777300434 | 26.67° C | 71% | 1015.7 hPa | 0 mm | - | - | - |
| 1777300292 | 27.22° C | 71% | 1015.8 hPa | 0 mm | - | - | - |
| 1777300134 | 27.22° C | 71% | 1015.8 hPa | 0 mm | - | - | - |
| 1777299986 | 26.67° C | 73% | 1015.8 hPa | 0 mm | - | - | - |
| 1777299834 | 26.67° C | 73% | 1015.8 hPa | 0 mm | - | - | - |
| 1777299717 | 26.67° C | 73% | 1015.8 hPa | 0 mm | - | - | - |
| 1777299534 | 26.67° C | 73% | 1015.8 hPa | 0 mm | - | - | - |
| 1777299414 | 26.67° C | 74% | 1015.7 hPa | 0 mm | - | - | - |
| 1777299234 | 26.67° C | 74% | 1015.7 hPa | 0 mm | - | - | - |
| 1777298934 | 26.11° C | 75% | 1015.6 hPa | 0 mm | - | - | - |
| 1777298783 | 26.11° C | 77% | 1015.6 hPa | 0 mm | - | - | - |
| 1777298634 | 26.11° C | 77% | 1015.6 hPa | 0 mm | - | - | - |
| 1777298334 | 25.56° C | 78% | 1015.6 hPa | 0 mm | - | - | - |
| 1777298034 | 25.56° C | 78% | 1015.7 hPa | 0 mm | - | - | - |
| 1777297734 | 25.56° C | 78% | 1015.5 hPa | 0 mm | - | - | - |
| 1777297434 | 25° C | 80% | 1015.4 hPa | 0 mm | - | - | - |
* Rain latest hour (hover to see other rain measurements)
** Current wind speed in m/s (hover to see current wind gust speed)